This is the latest recevied weather packets stored in our database for station/object KW4UJ. If no packets are shown the sender has not sent any weather packets the latest 10 day(s).
| Time | Temp. | Humidity | Pressure | Rain* | Wind** | Luminosity | Snow |
|---|---|---|---|---|---|---|---|
| 1777904712 | 20° C | 39% | 1013.8 hPa | 0 mm | - | 481 W/m² | - |
| 1777904409 | 19.44° C | 39% | 1013.8 hPa | 0 mm | - | 468 W/m² | - |
| 1777904106 | 19.44° C | 39% | 1014 hPa | 0 mm | - | 457 W/m² | - |
| 1777903802 | 18.89° C | 39% | 1014.1 hPa | 0 mm | - | 396 W/m² | - |
| 1777903499 | 18.89° C | 42% | 1014 hPa | 0 mm | - | 258 W/m² | - |
| 1777903195 | 18.89° C | 42% | 1014.1 hPa | 0 mm | - | 425 W/m² | - |
| 1777902892 | 17.78° C | 43% | 1014 hPa | 0 mm | - | 412 W/m² | - |
| 1777902589 | 17.22° C | 43% | 1014.1 hPa | 0 mm | - | 400 W/m² | - |
| 1777902286 | 17.22° C | 43% | 1014.1 hPa | 0 mm | - | 391 W/m² | - |
| 1777901984 | 17.22° C | 44% | 1014.2 hPa | 0 mm | - | 375 W/m² | - |
| 1777901681 | 17.22° C | 45% | 1014 hPa | 0 mm | - | 364 W/m² | - |
| 1777901378 | 16.67° C | 45% | 1014.2 hPa | 0 mm | - | 353 W/m² | - |
| 1777901076 | 16.67° C | 46% | 1014.3 hPa | 0 mm | - | 341 W/m² | - |
| 1777900773 | 16.67° C | 45% | 1014.4 hPa | 0 mm | - | 315 W/m² | - |
| 1777900470 | 15.56° C | 47% | 1014.3 hPa | 0 mm | - | 314 W/m² | - |
| 1777900167 | 15° C | 47% | 1014.4 hPa | 0 mm | - | 277 W/m² | - |
| 1777899864 | 15.56° C | 47% | 1014.6 hPa | 0 mm | - | 290 W/m² | - |
| 1777899560 | 15° C | 48% | 1014.8 hPa | 0 mm | - | 61 W/m² | - |
| 1777899258 | 15.56° C | 48% | 1014.8 hPa | 0 mm | - | 262 W/m² | - |
| 1777898955 | 15° C | 50% | 1014.7 hPa | 0 mm | - | 251 W/m² | - |
| 1777898652 | 15° C | 49% | 1014.7 hPa | 0 mm | - | 237 W/m² | - |
| 1777898349 | 13.89° C | 51% | 1014.8 hPa | 0 mm | - | 220 W/m² | - |
| 1777898048 | 13.89° C | 53% | 1014.9 hPa | 0 mm | - | 120 W/m² | - |
| 1777897743 | 13.89° C | 52% | 1014.9 hPa | 0 mm | - | 154 W/m² | - |
| 1777897439 | 13.33° C | 55% | 1014.9 hPa | 0 mm | - | 181 W/m² | - |
* Rain latest hour (hover to see other rain measurements)
** Current wind speed in m/s (hover to see current wind gust speed)